Weather History for Little Rock AFB, AR

Change the Weather History Date:

Sunday, April 28, 2013

  Actual Average Record
Temperature  
Mean Temperature 62 °F -  
Max Temperature 72 °F 74 °F 87 °F (2002)
Min Temperature 53 °F 52 °F 35 °F (1992)
Degree Days  
Heating Degree Days 2    
Growing Degree Days 12 (Base 50)    
Moisture  
Dew Point 53 °F    
Average Humidity 83    
Maximum Humidity 100    
Minimum Humidity 52    
Precipitation  
Precipitation 0.00 in - - ()
Sea Level Pressure  
Sea Level Pressure 29.99 in    
Wind  
Wind Speed 5 mph (WSW)    
Max Wind Speed 9 mph    
Max Gust Speed -    
Visibility 9 miles    
Events Rain    
Averages and records for this station are not official NWS values.
T = Trace of Precipitation, MM = Missing Value Source: NWS Daily Summary

Daily Weather History Graph

Daily Weather History Graph

Search for Another Location

Airport:

Trip Planner

Search our weather history database for the weather conditions in past years. The results will help you decide how hot, cold, wet, or windy it might be!

Date:

Astronomy

Apr. 28, 2013 Rise Set
Actual Time 6:20 AM CDT 7:51 PM CDT
Civil Twilight 5:54 AM CDT 8:18 PM CDT
Nautical Twilight 5:21 AM CDT 8:50 PM CDT
Astronomical Twilight 4:48 AM CDT 9:24 PM CDT
Moon 11:18 PM CDT 8:42 AM CDT
Length of Visible Light 14h 24m
Length of Day
13h 30m
Waning Gibbous, 88% of the Moon is Illuminated
Apr 28
Waning Gibbous
May 2
Last Quarter
May 9
New
May 17
First Quarter
May 24
Full

Hourly Weather History & Observations

Time (CDT) Temp. Dew Point Humidity Pressure Visibility Wind Dir Wind Speed Gust Speed Precip Events Conditions
12:23 AM 59.0 °F 55.4 °F 88% 30.01 in 10.0 mi West 6.9 mph - N/A   Overcast
12:58 AM 56.8 °F 54.7 °F 92% 30.01 in 10.0 mi West 6.9 mph - N/A   Mostly Cloudy
1:03 AM 55.4 °F 53.6 °F 94% 30.00 in 10.0 mi West 4.6 mph - N/A   Scattered Clouds
1:38 AM 55.4 °F 55.4 °F 100% 29.99 in 10.0 mi West 5.8 mph - N/A   Mostly Cloudy
1:58 AM 56.5 °F 54.7 °F 94% 29.99 in 10.0 mi West 5.8 mph - N/A   Overcast
2:23 AM 55.4 °F 53.6 °F 94% 29.97 in 10.0 mi WSW 4.6 mph - N/A   Scattered Clouds
2:58 AM 53.6 °F 53.2 °F 99% 29.98 in 10.0 mi West 3.5 mph - N/A   Mostly Cloudy
3:48 AM 53.6 °F 53.6 °F 100% 29.97 in 10.0 mi WSW 5.8 mph - N/A   Overcast
3:58 AM 53.4 °F 53.1 °F 99% 29.98 in 10.0 mi WSW 5.8 mph - N/A   Mostly Cloudy
4:58 AM 53.2 °F 53.1 °F 99% 29.98 in 10.0 mi Variable 3.5 mph - N/A   Partly Cloudy
5:08 AM 53.6 °F 53.6 °F 100% 29.97 in 10.0 mi Variable 3.5 mph - N/A   Mostly Cloudy
5:38 AM 55.4 °F 53.6 °F 94% 29.98 in 10.0 mi West 4.6 mph - N/A   Overcast
5:58 AM 55.0 °F 53.4 °F 94% 29.99 in 10.0 mi West 3.5 mph - N/A   Overcast
6:58 AM 55.2 °F 53.2 °F 93% 30.01 in 10.0 mi West 4.6 mph - N/A   Overcast
7:58 AM 56.3 °F 53.2 °F 89% 30.03 in 10.0 mi West 9.2 mph - N/A   Overcast
8:58 AM 57.9 °F 52.2 °F 81% 30.03 in 10.0 mi West 8.1 mph - N/A   Overcast
9:58 AM 59.4 °F 51.6 °F 76% 30.03 in 10.0 mi West 8.1 mph - N/A   Overcast
10:58 AM 60.3 °F 51.6 °F 73% 30.03 in 10.0 mi West 8.1 mph - N/A   Overcast
11:58 AM 61.0 °F 51.8 °F 72% 30.03 in 10.0 mi WSW 8.1 mph - N/A   Mostly Cloudy
12:53 PM 62.6 °F 51.8 °F 68% 30.00 in 10.0 mi SW 4.6 mph - N/A   Mostly Cloudy
12:58 PM 63.5 °F 52.2 °F 67% 30.01 in 10.0 mi Variable 6.9 mph - N/A   Mostly Cloudy
1:13 PM 64.4 °F 51.8 °F 64% 29.99 in 10.0 mi Variable 2.3 mph - N/A   Mostly Cloudy
1:58 PM 65.8 °F 52.5 °F 62% 29.99 in 10.0 mi Calm Calm - N/A   Scattered Clouds
2:58 PM 67.8 °F 52.9 °F 59% 29.98 in 5.0 mi East 4.6 mph - N/A   Haze
3:58 PM 71.2 °F 54.7 °F 56% 29.96 in 8.0 mi East 3.5 mph - N/A   Clear
4:58 PM 72.1 °F 53.6 °F 52% 29.95 in 9.0 mi SSW 2.3 mph - N/A   Clear
5:58 PM 72.7 °F 54.1 °F 52% 29.95 in 5.0 mi ESE 8.1 mph - N/A   Haze
6:58 PM 69.1 °F 54.7 °F 60% 29.95 in 3.0 mi SE 5.8 mph - N/A   Haze
7:58 PM 64.4 °F 54.3 °F 70% 29.96 in 4.0 mi ESE 2.3 mph - N/A   Haze
8:58 PM 58.6 °F 55.8 °F 90% 29.96 in 10.0 mi ESE 2.3 mph - N/A   Clear
9:58 PM 57.4 °F 54.5 °F 90% 29.98 in 10.0 mi Calm Calm - N/A   Clear
10:58 PM 54.9 °F 54.0 °F 97% 29.97 in 10.0 mi ENE 2.3 mph - N/A   Clear
11:09 PM 53.6 °F 53.6 °F 100% 29.96 in 10.0 mi ENE 2.3 mph - N/A Rain Light Rain
11:18 PM 53.6 °F 53.6 °F 100% 29.96 in 10.0 mi NE 1.2 mph - N/A   Clear
11:58 PM 53.4 °F 53.1 °F 99% 29.96 in 10.0 mi Calm Calm - 0.00 in   Clear